Powrót do katalogu

STARLINK-36193

AktywnyŁącznośćVLEO
NORAD 67099·PAYLOAD·🇺🇸 United States

Wystrzelony Dec 14, 2025 z Vandenberg Space Force Base

Loading…

Następne Przeloty (najbliższe 24 godziny)

TLE

ŚwieżeSource: CelesTrak SupGP

Epoka: Sep 15, 2026, 04:06 UTC

1 67099C 25298AA  26258.17131944 -.00037829  00000+0 -31700-2 0  2581
2 67099  69.9993 256.5918 0003967 265.5767  70.9725 14.98349032    11

Śledź STARLINK-36193 w czasie rzeczywistym z AllMySat

Download on the App Store